Flag for U.S.A. Weather past 2 weeks in Beaumont, Texas, U.S.A.

Now
31 °F

Clear.


Feels Like: 22 °F
Forecast: 31 / 53 °F
Wind: 10 mph from North

Location: Jefferson County Airport

Current Time: Mar 6, 2015 at 5:32:40 AM

Latest Report: Mar 6, 2015 at 4:53 AM


Visibility: 10 mi

Pressure: 30.54 "Hg

Humidity: 69%

Dew point: 22 °F

Location of BeaumontLocation

Historic Weather in Beaumont — Graph

°F

Beaumont temperature yesterday

Maximum temperature yesterday: 55 °F (at 12:53 AM)
Minimum temperature yesterday: 36 °F (at 11:53 PM)
Average temperature yesterday: 42 °F

Past Weeks' High & Low Weather Summary

 TemperatureHumidityPressure
High81 °F (Feb 22, 12:53 PM)100% (Mar 3, 12:53 AM)30.55 "Hg (Mar 3, 12:53 AM)
Low31 °F (Mar 6, 3:53 AM)43% (Feb 19, 11:53 AM)29.80 "Hg (Feb 25, 3:00 PM)
Average54 °F79%30.15 "Hg
* Reported Feb 19 3:53 AM — Mar 6 3:53 AM, Beaumont, Weather by CustomWeather, © 2015

Note: Actual official high and low records may vary slightly from our data, if they occured in-between our weather recording intervals... More about our weather records

Advertising

Beaumont weather history for previous 24 hours

 ConditionsComfort  
Time TempWeatherWind HumidityBarometerVisibility
3:53 AM
Fri, Mar 6
31 °FClear.8 mph69%30.54 "Hg10 mi
2:53 AM32 °FClear.9 mph69%30.53 "Hg10 mi
1:53 AM33 °FClear.10 mph66%30.53 "Hg10 mi
12:53 AM34 °FClear.10 mph67%30.54 "Hg10 mi
11:53 PM
Thu, Mar 5
36 °FClear.13 mph62%30.54 "Hg10 mi
10:53 PM37 °FClear.13 mph60%30.54 "Hg10 mi
9:53 PM38 °FClear.13 mph58%30.55 "Hg10 mi
8:53 PM39 °FClear.14 mph55%30.52 "Hg10 mi
7:53 PM41 °FClear.17 mph51%30.49 "Hg10 mi
6:53 PM42 °FClear.14 mph53%30.46 "Hg10 mi
5:53 PM45 °FSunny.17 mph49%30.43 "Hg10 mi
4:53 PM48 °FSunny.17 mph50%30.40 "Hg10 mi
3:53 PM48 °FPassing clouds.22 mph50%30.38 "Hg10 mi
2:53 PM46 °FOvercast.17 mph58%30.39 "Hg10 mi
1:53 PM44 °FScattered clouds.24 mph68%30.38 "Hg10 mi
12:53 PM38 °FOvercast.20 mph79%30.40 "Hg10 mi
11:53 AM37 °FOvercast.22 mph86%30.40 "Hg10 mi
10:53 AM37 °FLight rain. Overcast.22 mph86%30.39 "Hg10 mi
9:53 AM38 °FLight rain. Overcast.24 mph90%30.35 "Hg10 mi
8:53 AM40 °FLight rain. Mostly cloudy.22 mph86%30.32 "Hg10 mi
8:00 AM39 °FLight rain. Overcast.23 mph89%30.29 "Hg9 mi
7:03 AM39 °FLight rain. Low clouds.17 mph89%30.25 "Hg10 mi
6:53 AM39 °FLight rain. Overcast.17 mph89%30.23 "Hg10 mi
5:53 AM39 °FRain. Fog.20 mph89%30.18 "Hg5 mi
Weather by CustomWeather, © 2015

See weather overviewHow to use our weather pages